Alva, OK

7:10 PM CDT on October 20, 2017 (GMT -0500)
Alva Regional

Weather History for KAVK - November, 2013

Change the Weather History Date:

Tuesday, November 12, 2013

  Actual Average Record
Temperature  
Mean Temperature 31 °F -  
Max Temperature 39 °F 61 °F 82 °F (1971)
Min Temperature 23 °F 37 °F 12 °F (1950)
Degree Days  
Heating Degree Days 34    
Moisture  
Dew Point 12 °F    
Average Humidity 49    
Maximum Humidity 68    
Minimum Humidity 22    
Precipitation  
Precipitation 0.00 in - - ()
Sea Level Pressure  
Sea Level Pressure 30.75 in    
Wind  
Wind Speed 15 mph (NNE)    
Max Wind Speed 24 mph    
Max Gust Speed 32 mph    
Visibility 10 miles    
Events      
Averages and records for this station are not official NWS values.
T = Trace of Precipitation, MM = Missing Value Source: NWS Daily Summary

Daily Weather History Graph

Daily Weather History Graph

Search for Another Location

Airport or City:

Trip Planner

Search our weather history database for the weather conditions in past years. The results will help you decide how hot, cold, wet, or windy it might be!

Date:

Astronomy

Nov. 12, 2013 Rise Set
Actual Time 7:09 AM CST 5:27 PM CST
Civil Twilight 6:42 AM CST 5:54 PM CST
Nautical Twilight 6:11 AM CST 6:25 PM CST
Astronomical Twilight 5:40 AM CST 6:56 PM CST
Moon 2:36 PM CST (11/12) 2:08 AM CST (11/12)
Length of Visible Light 11h 12m
Length of Day
10h 17m
Waxing Gibbous, 76% of the Moon is Illuminated
Nov 12
Waxing Gibbous
Nov 17
Full
Nov 25
Last Quarter
Dec 2
New
Dec 9
First Quarter

Hourly Weather History & Observations

Time (CST) Temp. Windchill Dew Point Humidity Pressure Visibility Wind Dir Wind Speed Gust Speed Precip Events Conditions
12:10 AM 32.0 °F 18.9 °F 19.4 °F 60% 30.64 in 10.0 mi North 24.2 mph 32.2 mph N/A   Overcast
12:30 AM 32.0 °F 19.5 °F 19.4 °F 60% 30.65 in 10.0 mi North 21.9 mph 31.1 mph N/A   Overcast
12:50 AM 32.0 °F 19.8 °F 17.6 °F 55% 30.67 in 10.0 mi NNE 20.7 mph 27.6 mph N/A   Overcast
1:10 AM 32.0 °F 21.6 °F 15.8 °F 51% 30.68 in 10.0 mi North 15.0 mph 26.5 mph N/A   Overcast
1:30 AM 30.2 °F 18.5 °F 15.8 °F 55% 30.68 in 10.0 mi North 17.3 mph 28.8 mph N/A   Mostly Cloudy
1:50 AM 30.2 °F 18.1 °F 14.0 °F 51% 30.69 in 10.0 mi North 18.4 mph 27.6 mph N/A   Partly Cloudy
2:10 AM 28.4 °F 17.5 °F 14.0 °F 55% 30.70 in 10.0 mi North 13.8 mph 23.0 mph N/A   Clear
2:30 AM 28.4 °F 16.2 °F 14.0 °F 55% 30.71 in 10.0 mi North 17.3 mph 24.2 mph N/A   Clear
2:50 AM 28.4 °F 17.5 °F 14.0 °F 55% 30.72 in 10.0 mi North 13.8 mph 25.3 mph N/A   Clear
3:10 AM 28.4 °F 17.0 °F 14.0 °F 55% 30.73 in 10.0 mi North 15.0 mph 20.7 mph N/A   Clear
3:30 AM 28.4 °F 17.0 °F 14.0 °F 55% 30.74 in 10.0 mi North 15.0 mph 24.2 mph N/A   Clear
3:50 AM 28.4 °F 16.6 °F 14.0 °F 55% 30.75 in 10.0 mi North 16.1 mph 25.3 mph N/A   Clear
4:10 AM 28.4 °F 16.2 °F 15.8 °F 59% 30.74 in 10.0 mi North 17.3 mph 21.9 mph N/A   Clear
4:30 AM 26.6 °F 14.3 °F 15.8 °F 64% 30.74 in 10.0 mi North 16.1 mph - N/A   Clear
4:50 AM 26.6 °F 15.7 °F 15.8 °F 64% 30.76 in 10.0 mi North 12.7 mph - N/A   Clear
5:10 AM 26.6 °F 15.2 °F 15.8 °F 64% 30.77 in 10.0 mi North 13.8 mph 19.6 mph N/A   Clear
5:30 AM 26.6 °F 14.7 °F 15.8 °F 64% 30.77 in 10.0 mi North 15.0 mph - N/A   Clear
5:50 AM 26.6 °F 14.7 °F 15.8 °F 64% 30.78 in 10.0 mi North 15.0 mph 24.2 mph N/A   Clear
6:10 AM 26.6 °F 13.8 °F 15.8 °F 64% 30.79 in 10.0 mi North 17.3 mph 25.3 mph N/A   Clear
6:30 AM 26.6 °F 15.7 °F 14.0 °F 59% 30.79 in 10.0 mi North 12.7 mph - N/A   Clear
6:50 AM 26.6 °F 15.7 °F 15.8 °F 64% 30.81 in 10.0 mi North 12.7 mph 19.6 mph N/A   Clear
7:10 AM 26.6 °F 15.7 °F 14.0 °F 59% 30.81 in 10.0 mi NNE 12.7 mph 19.6 mph N/A   Clear
7:30 AM 26.6 °F 14.7 °F 14.0 °F 59% 30.81 in 10.0 mi NNE 15.0 mph 21.9 mph N/A   Clear
7:50 AM 28.4 °F 17.0 °F 14.0 °F 55% 30.82 in 10.0 mi North 15.0 mph 21.9 mph N/A   Clear
8:10 AM 26.6 °F 12.7 °F 14.0 °F 59% 30.82 in 10.0 mi NNE 20.7 mph - N/A   Clear
8:30 AM 28.4 °F 14.4 °F 14.0 °F 55% 30.83 in 10.0 mi NNE 23.0 mph 28.8 mph N/A   Clear
8:50 AM 28.4 °F 15.8 °F 14.0 °F 55% 30.84 in 10.0 mi NNE 18.4 mph - N/A   Clear
9:10 AM 28.4 °F 15.4 °F 10.4 °F 47% 30.85 in 10.0 mi North 19.6 mph - N/A   Clear
9:30 AM 30.2 °F 18.5 °F 10.4 °F 44% 30.86 in 10.0 mi NNE 17.3 mph - N/A   Clear
9:50 AM 30.2 °F 18.5 °F 10.4 °F 44% 30.86 in 10.0 mi North 17.3 mph - N/A   Clear
10:10 AM 32.0 °F 20.5 °F 8.6 °F 38% 30.86 in 10.0 mi North 18.4 mph 21.9 mph N/A   Clear
10:30 AM 32.0 °F 21.6 °F 10.4 °F 41% 30.86 in 10.0 mi NNE 15.0 mph 20.7 mph N/A   Clear
10:50 AM 32.0 °F 21.6 °F 8.6 °F 38% 30.86 in 10.0 mi NE 15.0 mph 21.9 mph N/A   Clear
11:10 AM 32.0 °F 21.2 °F 8.6 °F 38% 30.86 in 10.0 mi NNE 16.1 mph - N/A   Clear
11:30 AM 32.0 °F 22.5 °F 8.6 °F 38% 30.85 in 10.0 mi NNE 12.7 mph 21.9 mph N/A   Clear
11:50 AM 33.8 °F 24.3 °F 8.6 °F 35% 30.84 in 10.0 mi NNE 13.8 mph 17.3 mph N/A   Clear
12:10 PM 35.6 °F 26.6 °F 8.6 °F 33% 30.83 in 10.0 mi NE 13.8 mph 19.6 mph N/A   Clear
12:30 PM 35.6 °F 27.1 °F 8.6 °F 33% 30.82 in 10.0 mi North 12.7 mph 18.4 mph N/A   Clear
12:50 PM 35.6 °F 27.1 °F 5.0 °F 28% 30.81 in 10.0 mi NE 12.7 mph - N/A   Clear
1:10 PM 35.6 °F 29.2 °F 6.8 °F 30% 30.80 in 10.0 mi NE 8.1 mph - N/A   Clear
1:30 PM 37.4 °F 30.3 °F 6.8 °F 28% 30.78 in 10.0 mi NE 10.4 mph - N/A   Clear
1:50 PM 37.4 °F 32.1 °F 5.0 °F 26% 30.77 in 10.0 mi NE 6.9 mph - N/A   Clear
2:10 PM 37.4 °F 29.8 °F 5.0 °F 26% 30.76 in 10.0 mi NNE 11.5 mph - N/A   Clear
2:30 PM 37.4 °F 31.4 °F 5.0 °F 26% 30.75 in 10.0 mi NNE 8.1 mph - N/A   Clear
2:50 PM 37.4 °F 31.4 °F 5.0 °F 26% 30.75 in 10.0 mi NE 8.1 mph - N/A   Clear
3:10 PM 37.4 °F 31.4 °F 3.2 °F 24% 30.75 in 10.0 mi NE 8.1 mph - N/A   Clear
3:30 PM 39.2 °F 34.2 °F 6.8 °F 26% 30.74 in 10.0 mi NNE 6.9 mph - N/A   Clear
3:50 PM 37.4 °F 31.4 °F 5.0 °F 26% 30.74 in 10.0 mi NNE 8.1 mph - N/A   Clear
4:10 PM 37.4 °F 32.1 °F 1.4 °F 22% 30.74 in 10.0 mi NNE 6.9 mph - N/A   Clear
4:30 PM 37.4 °F 32.1 °F 5.0 °F 26% 30.73 in 10.0 mi NE 6.9 mph - N/A   Clear
4:50 PM 37.4 °F 33.8 °F 5.0 °F 26% 30.73 in 10.0 mi NE 4.6 mph - N/A   Clear
5:10 PM 35.6 °F 31.7 °F 6.8 °F 30% 30.72 in 10.0 mi ENE 4.6 mph - N/A   Clear
5:30 PM 35.6 °F 31.7 °F 8.6 °F 33% 30.72 in 10.0 mi East 4.6 mph - N/A   Clear
5:50 PM 32.0 °F 27.5 °F 12.2 °F 44% 30.71 in 10.0 mi ESE 4.6 mph - N/A   Clear
6:10 PM 32.0 °F 26.4 °F 14.0 °F 48% 30.71 in 8.0 mi ESE 5.8 mph - N/A   Clear
6:30 PM 30.2 °F 24.3 °F 14.0 °F 51% 30.71 in 10.0 mi SE 5.8 mph - N/A   Clear
6:50 PM 30.2 °F 23.4 °F 12.2 °F 47% 30.72 in 10.0 mi SE 6.9 mph - N/A   Clear
7:10 PM 28.4 °F 21.2 °F 12.2 °F 51% 30.71 in 10.0 mi SSE 6.9 mph - N/A   Clear
7:30 PM 26.6 °F 20.0 °F 14.0 °F 59% 30.71 in 10.0 mi South 5.8 mph - N/A   Clear
7:50 PM 26.6 °F 19.1 °F 14.0 °F 59% 30.70 in 10.0 mi South 6.9 mph - N/A   Clear
8:10 PM 28.4 °F 22.2 °F 14.0 °F 55% 30.70 in 10.0 mi South 5.8 mph - N/A   Clear
8:30 PM 26.6 °F 19.1 °F 14.0 °F 59% 30.69 in 10.0 mi South 6.9 mph - N/A   Clear
8:50 PM 26.6 °F 19.1 °F 14.0 °F 59% 30.69 in 10.0 mi South 6.9 mph - N/A   Clear
9:10 PM 24.8 °F 17.9 °F 14.0 °F 64% 30.70 in 10.0 mi SSW 5.8 mph - N/A   Clear
9:30 PM 24.8 °F 16.9 °F 14.0 °F 64% 30.69 in 10.0 mi South 6.9 mph - N/A   Clear
9:50 PM 24.8 °F 17.9 °F 14.0 °F 64% 30.70 in 10.0 mi SSW 5.8 mph - N/A   Clear
10:10 PM 24.8 °F 16.9 °F 14.0 °F 64% 30.70 in 10.0 mi South 6.9 mph - N/A   Clear
10:30 PM 24.8 °F 16.9 °F 14.0 °F 64% 30.69 in 10.0 mi South 6.9 mph - N/A   Clear
10:50 PM 24.8 °F 16.9 °F 14.0 °F 64% 30.68 in 10.0 mi South 6.9 mph - N/A   Clear
11:10 PM 23.0 °F 15.8 °F 14.0 °F 68% 30.68 in 10.0 mi SSW 5.8 mph - N/A   Clear
11:30 PM 23.0 °F 15.8 °F 14.0 °F 68% 30.68 in 10.0 mi SSW 5.8 mph - N/A   Clear
11:50 PM 23.0 °F 13.9 °F 14.0 °F 68% 30.68 in 10.0 mi SW 8.1 mph - N/A   Clear